Regional Weather Roundup
Issued by NWS

Home | Current Version | Previous Version | Text Only | Print | Product List | Glossary Off
Versions: 1 2 3 4 5 6 7 8 9 10 11 12 13 14 15 16 17 18 19 20 21 22 23 24 25 26 27 28 29 30 31 32 33 34 35 36 37 38 39 40 41 42 43 44 45 46 47 48 49 50

000
ASUS43 KMKX 261900
RWRWI

WISCONSIN REGIONAL WEATHER ROUNDUP
NATIONAL WEATHER SERVICE MILWAUKEE/SULLIVAN WI
200 PM CDT SAT MAY 26 2018

NOTE: "FAIR" INDICATES FEW OR NO CLOUDS BELOW 12,000 FEET WITH NO
SIGNIFICANT WEATHER AND/OR OBSTRUCTIONS TO VISIBILITY.

WIZ001-002-006>008-014>016-023>028-262000-
NORTHWEST WISCONSIN

CITY           SKY/WX    TMP DP  RH WIND       PRES   REMARKS
SUPERIOR ARPT  FAIR      75  57  52 NE9       29.63S
ASHLAND        FAIR      71  58  63 N9        29.66S
HAYWARD        FAIR      89  56  32 SW7       29.70S HX  87
SIREN          FAIR      92  47  21 W12G17    29.70S HX  88
CUMBERLAND     FAIR      86  52  30 SW3       29.72S HX  84
RICE LAKE      FAIR      89  55  31 W3        29.73S HX  87
CHETEK         FAIR      88  64  45 W6        29.72S HX  89
LADYSMITH      FAIR      88  63  43 SW8       29.73S HX  88
EAU CLAIRE     NOT AVBL
MENOMONIE      FAIR      89  63  41 SW6       29.71S HX  89
NEW RICHMOND   FAIR      88  54  30 CALM      29.72S HX  86
OSCEOLA        FAIR      90  58  34 S7        29.73F HX  89
$$

WIZ003>005-009-010-017-018-262000-
NORTH CENTRAL WISCONSIN

CITY           SKY/WX    TMP DP  RH WIND       PRES   REMARKS
MANITOWISH WTR FAIR      87  57  35 W7        29.70F HX  86
ARBOR VITAE    FAIR      85  56  36 SW13G18   29.71S HX  84
WOODRUFF       FAIR      85  56  36 SW13G18   29.71S HX  84
RHINELANDER    FAIR      91  57  31 SW15G23   29.73F HX  89
EAGLE RIVER    FAIR      88  50  27 W14G24    29.71F HX  85
LAND O LAKES   FAIR      88  51  27 SW6G17    29.72F HX  85
PHILLIPS       FAIR      87  62  43 NW6       29.71F HX  87
TOMAHAWK       FAIR      87  54  32 SW10G17   29.72F HX  85
MEDFORD        FAIR      86  61  42 SW12      29.74S HX  86
MERRILL        FAIR      89  59  36 SW14G20   29.73S HX  88
$$

WIZ029-030-035-036-043>047-262000-
CENTRAL WISCONSIN

CITY           SKY/WX    TMP DP  RH WIND       PRES   REMARKS
WAUSAU         NOT AVBL
MOSINEE        MOSUNNY   86  59  39 S10       29.75F HX  85
MARSHFIELD     FAIR      88  60  38 W7        29.73F HX  87
STEVENS POINT  FAIR      86  58  39 SW10G16   29.75S HX  85
WAUPACA        FAIR      92  56  29 S7        29.73F HX  91
WAUTOMA        NOT AVBL
WISC RAPIDS    FAIR      90  57  32 S10       29.75S HX  88
CAMP DOUGLAS   NOT AVBL
$$

WIZ011>013-019>022-031-037>040-048>050-262000-
NORTHEAST WISCONSIN

CITY           SKY/WX    TMP DP  RH WIND       PRES   REMARKS
ANTIGO         FAIR      87  58  37 SW7       29.74S HX  86
SHAWANO        FAIR      90  61  37 S7        29.71F HX  89
OCONTO         FAIR      86  63  45 SE9       29.71S HX  87
STURGEON BAY   FAIR      80  63  55 E9        29.74S HX  81
GREEN BAY      FAIR      88  60  38 VRB5      29.72F HX  87
MANITOWOC      NOT AVBL
APPLETON       SUNNY     84  55  37 SW6       29.73F HX  83
CLINTONVILLE   FAIR      88  58  36 SW10      29.72F HX  87
OSHKOSH        FAIR      86  60  41 SW6       29.74F HX  86
$$

WIZ032>034-041-042-053>061-262000-
SOUTHWEST WISCONSIN

CITY           SKY/WX    TMP DP  RH WIND       PRES   REMARKS
LA CROSSE      FAIR      88  70  55 S6        29.73F HX  93
SPARTA         FAIR      87  62  42 SW6       29.75S HX  88
VIROQUA        FAIR      87  64  44 SW8       29.78S HX  88
BOSCOBEL       FAIR      89  68  49 VRB5      29.76S HX  93
PRAIRIE DU CHI FAIR      85  64  48 SW3       29.76S HX  86
PLATTEVILLE    FAIR      84  70  63 SW6       29.79F HX  88
$$

WIZ056-057-062-063-064-067-068-262000-
SOUTH CENTRAL WISCONSIN

CITY           SKY/WX    TMP DP  RH WIND       PRES   REMARKS
REEDSBURG      FAIR      87  63  44 SW7       29.76S HX  87
BARABOO/DELLS  FAIR      88  55  33 SW5       29.76F HX  86
LONE ROCK      NOT AVBL
MINERAL POINT  FAIR      86  63  45 CALM      29.79F HX  87
MADISON        FAIR      86  63  45 SW7       29.75F HX  87
MIDDLETON      FAIR      88  60  38 W7        29.77F HX  88
WATERTOWN      FAIR      86  64  47 SW3       29.76F HX  87
MONROE         FAIR      86  59  39 SW3       29.78S HX  85
JANESVILLE     SUNNY     88  61  40 VRB3      29.77F HX  88
$$

WIZ051-052-058>065-066-070>072-262000-
SOUTHEAST WISCONSIN

CITY           SKY/WX    TMP DP  RH WIND       PRES   REMARKS
MILWAUKEE      FAIR      82  65  56 E12       29.76S HX  84
WAUKESHA       SUNNY     82  61  47 W5        29.78F HX  83
MILWAUKEE/TIMM SUNNY     86  54  32 W9        29.77S HX  84
RACINE         FAIR      82  62  50 S9        29.78F HX  83
BURLINGTON     FAIR      86  60  40 NW7       29.77S HX  86
KENOSHA        FAIR      85  63  47 E13       29.77S HX  86
FOND DU LAC    FAIR      86  61  42 SW7       29.74F HX  86
SHEBOYGAN      FAIR      86  61  42 VRB5      29.74S HX  86
WEST BEND      FAIR      84  59  42 W7        29.76F HX  84
JUNEAU         FAIR      83  62  48 W3        29.77F HX  84
$$

LSZ147-162-262000-
LAKE SUPERIOR

STATION/POSITION TIME  TEMP    WIND        PRES    WAVE
                       AIR SEA DIR/SP/G            HT/PER
                 (UTC) (F)     (DEG/KT/KT) (MB)    (FT/S)
W MID LAKE BUOY  1750   40 37   60/  8/ 10 1005.1F   0
DEVILS ISLAND    1800   47     110/ 10/ 12 1005.2F
SAXON HARBOR     1830           10/  3/  4 1004.7S
$$

LMZ867-665-643>646-262000-
LAKE MICHIGAN

STATION/POSITION TIME  TEMP    WIND        PRES    WAVE
                       AIR SEA DIR/SP/G            HT/PER
                 (UTC) (F)     (DEG/KT/KT) (MB)    (FT/S)
N MID LAKE BUOY  1840   43 38  270/  2/  4 1008.6F
NORTHPORT PIER   1840   51     130/  6/  6 1007.1S
KEWAUNEE LAKESHO 1824          160/  9/ 10 1006.9
SHEBOYGAN LAKESH 1800   72     160/ 12/ 12 1006.8F
PORT WASHINGTON  1840   69     170/  6/ 11 1008.8S
ATWATER BUOY     1807   59 52  170/  8/ 10 1008.4    1
MILWAUKEE LAKESH 1840   55     150/  7/  9   N/A
S MID LAKE BUOY  1750   47 39  180/  8/ 10 1009.1F   0
KENOSHA   LAKESH 1800   63                 1008.1
$$

TC  - TEMPERATURE IN CELSIUS
VSB - VISIBILITY IN STATUTE MILES
WCI - WIND CHILL INDEX
HX  - HEAT INDEX





USA.gov is the U.S. government's official web portal to all federal, state and local government web resources and services.